Data No, UTC Date,UTC Time,Latitude,Longitude,Course(deg),Temp(degC),Sal(psu),pH
512,2019/5/31,8:31,42-36.83N,141-36.99E,210,11.225,30.6838,8.07
513,2019/5/31,8:32,42-36.59N,141-36.80E,206,11.355,30.8896,8.07
514,2019/5/31,8:33,42-36.35N,141-36.77E,177,12.555,30.9795,8.08
515,2019/5/31,8:34,42-36.09N,141-36.81E,172,12.477,30.7781,8.08
516,2019/5/31,8:35,42-35.82N,141-36.86E,170,12.401,30.6663,8.07
517,2019/5/31,8:36,42-35.56N,141-36.93E,168,12.134,30.6835,8.08
518,2019/5/31,8:37,42-35.30N,141-37.00E,168,11.919,30.807,8.07
519,2019/5/31,8:38,42-35.02N,141-37.07E,170,11.754,30.9463,8.07
520,2019/5/31,8:39,42-34.76N,141-37.12E,171,11.542,31.0331,8.07
521,2019/5/31,8:40,42-34.49N,141-37.18E,171,11.338,31.2099,8.08
522,2019/5/31,8:41,42-34.23N,141-37.23E,171,11.065,31.4107,8.08
523,2019/5/31,8:42,42-33.96N,141-37.28E,172,10.865,31.6444,8.08
524,2019/5/31,8:43,42-33.69N,141-37.31E,175,10.654,31.8613,8.08
525,2019/5/31,8:44,42-33.43N,141-37.34E,176,10.588,32.0156,8.1
526,2019/5/31,8:45,42-33.16N,141-37.36E,176,10.572,32.0994,8.1
527,2019/5/31,8:46,42-32.90N,141-37.38E,176,10.579,32.1502,8.1
528,2019/5/31,8:47,42-32.63N,141-37.40E,176,10.562,32.1858,8.1
529,2019/5/31,8:48,42-32.37N,141-37.42E,177,10.553,32.2024,8.1
530,2019/5/31,8:49,42-32.10N,141-37.43E,176,10.625,32.2164,8.1
531,2019/5/31,8:50,42-31.82N,141-37.46E,176,10.646,32.2372,8.1
532,2019/5/31,8:51,42-31.57N,141-37.48E,176,10.769,32.2539,8.1
533,2019/5/31,8:52,42-31.31N,141-37.48E,180,10.765,32.2747,8.1
534,2019/5/31,8:53,42-31.04N,141-37.47E,181,10.733,32.277,8.1
535,2019/5/31,8:54,42-30.77N,141-37.46E,181,10.651,32.2803,8.11
536,2019/5/31,8:55,42-30.50N,141-37.45E,181,10.491,32.2876,8.11
537,2019/5/31,8:56,42-30.23N,141-37.44E,181,10.378,32.3006,8.11
538,2019/5/31,8:57,42-29.96N,141-37.43E,181,10.358,32.3119,8.11
539,2019/5/31,8:58,42-29.70N,141-37.42E,181,10.313,32.3076,8.11
540,2019/5/31,8:59,42-29.42N,141-37.41E,181,10.268,32.3013,8.12
541,2019/5/31,9:00,42-29.15N,141-37.40E,181,10.257,32.2989,8.12
542,2019/5/31,9:01,42-28.88N,141-37.39E,181,10.272,32.2992,8.12
543,2019/5/31,9:02,42-28.61N,141-37.37E,181,10.216,32.2982,8.12
544,2019/5/31,9:03,42-28.34N,141-37.36E,181,10.261,32.2984,8.12
545,2019/5/31,9:04,42-28.07N,141-37.36E,181,10.523,32.3268,8.12
546,2019/5/31,9:05,42-27.80N,141-37.35E,181,10.836,32.3793,8.13
547,2019/5/31,9:06,42-27.54N,141-37.34E,181,10.937,32.4158,8.13
548,2019/5/31,9:07,42-27.27N,141-37.33E,181,11.04,32.4291,8.13
549,2019/5/31,9:08,42-27.01N,141-37.32E,181,11.109,32.445,8.13
550,2019/5/31,9:09,42-26.73N,141-37.31E,181,11.167,32.4525,8.12
551,2019/5/31,9:10,42-26.46N,141-37.31E,181,11.168,32.4552,8.12
552,2019/5/31,9:11,42-26.18N,141-37.30E,181,11.148,32.454,8.13
553,2019/5/31,9:12,42-25.92N,141-37.29E,181,11.107,32.4569,8.12
554,2019/5/31,9:13,42-25.66N,141-37.28E,181,11.003,32.4651,8.12
555,2019/5/31,9:14,42-25.39N,141-37.27E,181,10.916,32.4686,8.11
556,2019/5/31,9:15,42-25.12N,141-37.26E,181,10.927,32.4888,8.12
557,2019/5/31,9:16,42-24.84N,141-37.26E,181,11.788,32.5861,8.12
558,2019/5/31,9:17,42-24.57N,141-37.25E,181,12.06,32.7893,8.13
559,2019/5/31,9:18,42-24.30N,141-37.24E,181,12.291,32.8912,8.12
560,2019/5/31,9:19,42-24.04N,141-37.23E,181,12.467,32.9447,8.11
561,2019/5/31,9:20,42-23.76N,141-37.22E,181,12.517,32.9797,8.11
562,2019/5/31,9:21,42-23.49N,141-37.22E,180,12.623,32.9954,8.11
563,2019/5/31,9:22,42-23.21N,141-37.21E,180,12.703,33.0069,8.11
564,2019/5/31,9:23,42-22.94N,141-37.21E,180,12.708,33.0134,8.11
565,2019/5/31,9:24,42-22.67N,141-37.20E,180,12.733,33.0142,8.11
566,2019/5/31,9:25,42-22.39N,141-37.19E,180,12.78,33.0098,8.1
567,2019/5/31,9:26,42-22.10N,141-37.19E,180,12.763,33.0089,8.11
568,2019/5/31,9:27,42-21.83N,141-37.18E,180,12.81,33.0086,8.1
569,2019/5/31,9:28,42-21.56N,141-37.18E,180,12.871,33.0152,8.1
570,2019/5/31,9:29,42-21.28N,141-37.18E,180,12.935,33.0092,8.1
571,2019/5/31,9:30,42-21.01N,141-37.17E,181,12.939,33.0028,8.11
572,2019/5/31,9:31,42-20.73N,141-37.16E,180,12.993,32.9955,8.1
573,2019/5/31,9:32,42-20.45N,141-37.16E,179,13.016,32.9906,8.1
574,2019/5/31,9:33,42-20.18N,141-37.15E,181,13.004,32.9735,8.1
575,2019/5/31,9:34,42-19.91N,141-37.14E,181,12.986,32.9579,8.1
576,2019/5/31,9:35,42-19.63N,141-37.13E,180,12.95,32.9449,8.1
577,2019/5/31,9:36,42-19.36N,141-37.13E,179,12.947,32.9392,8.1
578,2019/5/31,9:37,42-19.09N,141-37.13E,180,12.942,32.9403,8.11
579,2019/5/31,9:38,42-18.82N,141-37.13E,180,12.968,32.9489,8.1
580,2019/5/31,9:39,42-18.54N,141-37.12E,180,12.886,32.9491,8.11
581,2019/5/31,9:40,42-18.27N,141-37.12E,179,12.829,32.9225,8.11
582,2019/5/31,9:41,42-18.00N,141-37.12E,180,12.793,32.8977,8.11
583,2019/5/31,9:42,42-17.73N,141-37.12E,179,12.755,32.8618,8.11
584,2019/5/31,9:43,42-17.45N,141-37.11E,180,12.666,32.8397,8.11
585,2019/5/31,9:44,42-17.19N,141-37.11E,179,12.611,32.8131,8.11
586,2019/5/31,9:45,42-16.92N,141-37.12E,179,12.554,32.7904,8.11
587,2019/5/31,9:46,42-16.64N,141-37.11E,180,12.502,32.768,8.11
588,2019/5/31,9:47,42-16.37N,141-37.11E,180,12.452,32.7401,8.11
589,2019/5/31,9:48,42-16.11N,141-37.11E,180,12.429,32.6947,8.11
590,2019/5/31,9:49,42-15.84N,141-37.11E,179,12.43,32.6624,8.11
591,2019/5/31,9:50,42-15.58N,141-37.12E,179,12.434,32.6373,8.12
592,2019/5/31,9:51,42-15.31N,141-37.12E,179,12.446,32.6132,8.12
593,2019/5/31,9:52,42-15.04N,141-37.12E,179,12.445,32.5923,8.11
594,2019/5/31,9:53,42-14.77N,141-37.12E,179,12.444,32.5854,8.12
595,2019/5/31,9:54,42-14.50N,141-37.12E,179,12.43,32.5804,8.12
596,2019/5/31,9:55,42-14.23N,141-37.13E,179,12.418,32.5893,8.13
597,2019/5/31,9:56,42-13.96N,141-37.13E,179,12.431,32.5966,8.13
598,2019/5/31,9:57,42-13.69N,141-37.13E,180,12.411,32.5971,8.13
599,2019/5/31,9:58,42-13.41N,141-37.13E,180,12.405,32.5978,8.12
600,2019/5/31,9:59,42-13.14N,141-37.13E,178,12.39,32.6004,8.13
601,2019/5/31,10:00,42-12.87N,141-37.15E,177,12.411,32.6305,8.13
602,2019/5/31,10:01,42-12.59N,141-37.16E,178,12.375,32.6911,8.13
603,2019/5/31,10:02,42-12.32N,141-37.17E,179,12.291,32.7106,8.13
604,2019/5/31,10:03,42-12.05N,141-37.17E,179,12.213,32.7092,8.13
605,2019/5/31,10:04,42-11.77N,141-37.18E,178,12.187,32.7123,8.13
606,2019/5/31,10:05,42-11.51N,141-37.18E,178,12.083,32.7171,8.13
607,2019/5/31,10:06,42-11.24N,141-37.19E,178,12.004,32.7185,8.13
608,2019/5/31,10:07,42-10.97N,141-37.20E,178,11.734,32.7097,8.13
609,2019/5/31,10:08,42-10.69N,141-37.21E,179,11.436,32.6812,8.13
610,2019/5/31,10:09,42-10.42N,141-37.21E,178,11.048,32.6314,8.13
611,2019/5/31,10:10,42-10.15N,141-37.22E,178,10.864,32.5329,8.13
612,2019/5/31,10:11,42-09.88N,141-37.23E,179,10.771,32.4806,8.13
613,2019/5/31,10:12,42-09.61N,141-37.23E,179,10.739,32.4536,8.13
614,2019/5/31,10:13,42-09.33N,141-37.23E,179,10.705,32.4238,8.15
615,2019/5/31,10:14,42-09.06N,141-37.24E,179,---,32.4083,8.14
616,2019/5/31,10:15,42-08.79N,141-37.24E,178,10.644,32.4006,8.15
617,2019/5/31,10:16,42-08.52N,141-37.25E,178,10.737,32.3982,8.15
618,2019/5/31,10:17,42-08.25N,141-37.26E,179,10.775,32.4153,8.15
619,2019/5/31,10:18,42-07.98N,141-37.26E,179,10.808,32.4324,8.15
620,2019/5/31,10:19,42-07.70N,141-37.27E,179,10.864,32.4577,8.15
621,2019/5/31,10:20,42-07.43N,141-37.27E,178,10.809,32.4787,8.15
622,2019/5/31,10:21,42-07.16N,141-37.28E,178,10.759,32.505,8.15
623,2019/5/31,10:22,42-06.88N,141-37.29E,178,10.826,32.5368,8.15
624,2019/5/31,10:23,42-06.62N,141-37.29E,179,10.816,32.5667,8.15
625,2019/5/31,10:24,42-06.34N,141-37.29E,179,10.774,32.5671,8.15
626,2019/5/31,10:25,42-06.07N,141-37.30E,178,10.609,32.5898,8.15
627,2019/5/31,10:26,42-05.79N,141-37.31E,179,10.473,32.6196,8.15
628,2019/5/31,10:27,42-05.52N,141-37.31E,179,10.356,32.6479,8.15
629,2019/5/31,10:28,42-05.25N,141-37.32E,178,10.24,32.6857,8.15
630,2019/5/31,10:29,42-04.97N,141-37.32E,178,10.215,32.7316,8.15
631,2019/5/31,10:30,42-04.70N,141-37.33E,179,10.173,32.765,8.15
632,2019/5/31,10:31,42-04.43N,141-37.33E,179,10.189,32.777,8.15
633,2019/5/31,10:32,42-04.16N,141-37.33E,179,10.005,32.7932,8.15
634,2019/5/31,10:33,42-03.88N,141-37.34E,179,9.937,32.8346,8.15
635,2019/5/31,10:34,42-03.61N,141-37.34E,179,9.905,32.8664,8.15
636,2019/5/31,10:35,42-03.34N,141-37.34E,179,9.95,32.8851,8.16
637,2019/5/31,10:36,42-03.07N,141-37.35E,179,9.979,32.8939,8.16
638,2019/5/31,10:37,42-02.79N,141-37.35E,179,10.023,32.8971,8.15
639,2019/5/31,10:38,42-02.52N,141-37.35E,179,10.028,32.8986,8.16
640,2019/5/31,10:39,42-02.25N,141-37.35E,179,10.064,32.8998,8.16
641,2019/5/31,10:40,42-01.97N,141-37.35E,179,10.084,32.9019,8.15
642,2019/5/31,10:41,42-01.70N,141-37.36E,179,10.111,32.9017,8.16
643,2019/5/31,10:42,42-01.42N,141-37.36E,179,10.126,32.901,8.16
644,2019/5/31,10:43,42-01.15N,141-37.36E,179,10.171,32.9004,8.16
645,2019/5/31,10:44,42-00.87N,141-37.36E,179,10.203,32.9048,8.16
646,2019/5/31,10:45,42-00.59N,141-37.36E,179,10.279,32.9106,8.16
647,2019/5/31,10:46,42-00.31N,141-37.36E,179,10.393,32.9291,8.16
648,2019/5/31,10:47,42-00.04N,141-37.36E,179,10.441,32.9529,8.16
649,2019/5/31,10:48,41-59.76N,141-37.37E,180,10.518,32.9695,8.16
650,2019/5/31,10:49,41-59.48N,141-37.36E,180,10.573,32.9933,8.16
651,2019/5/31,10:50,41-59.20N,141-37.36E,180,10.562,33.0293,8.16
652,2019/5/31,10:51,41-58.92N,141-37.36E,179,10.551,33.0367,8.15
653,2019/5/31,10:52,41-58.64N,141-37.36E,179,10.53,33.0316,8.16
654,2019/5/31,10:53,41-58.36N,141-37.36E,179,10.528,33.0271,8.16
655,2019/5/31,10:54,41-58.08N,141-37.36E,179,10.513,33.0181,8.16
656,2019/5/31,10:55,41-57.80N,141-37.36E,179,10.505,33.0127,8.16
657,2019/5/31,10:56,41-57.52N,141-37.36E,179,10.518,33.003,8.16
658,2019/5/31,10:57,41-57.24N,141-37.36E,180,10.54,32.9971,8.17
659,2019/5/31,10:58,41-56.96N,141-37.36E,179,10.562,32.9883,8.16
660,2019/5/31,10:59,41-56.69N,141-37.36E,179,10.582,32.9792,8.17
661,2019/5/31,11:00,41-56.41N,141-37.37E,179,10.605,32.9722,8.17
662,2019/5/31,11:01,41-56.13N,141-37.37E,179,10.618,32.9711,8.16
663,2019/5/31,11:02,41-55.85N,141-37.37E,179,10.623,32.9719,8.16
664,2019/5/31,11:03,41-55.58N,141-37.37E,179,10.621,32.9676,8.16
665,2019/5/31,11:04,41-55.31N,141-37.37E,179,10.618,32.9695,8.16
666,2019/5/31,11:05,41-55.03N,141-37.37E,179,10.606,32.9665,8.16
667,2019/5/31,11:06,41-54.76N,141-37.37E,179,10.603,32.9678,8.16
668,2019/5/31,11:07,41-54.48N,141-37.37E,179,10.593,32.9704,8.16
669,2019/5/31,11:08,41-54.20N,141-37.37E,180,10.6,32.9701,8.16
670,2019/5/31,11:09,41-53.92N,141-37.37E,179,10.611,32.9673,8.16
671,2019/5/31,11:10,41-53.65N,141-37.37E,179,10.616,32.9651,8.16
672,2019/5/31,11:11,41-53.36N,141-37.37E,180,10.619,32.9634,8.16
673,2019/5/31,11:12,41-53.08N,141-37.37E,181,10.624,32.964,8.16
674,2019/5/31,11:13,41-52.79N,141-37.36E,180,10.618,32.9584,8.16
675,2019/5/31,11:14,41-52.51N,141-37.36E,179,10.622,32.9575,8.16
676,2019/5/31,11:15,41-52.23N,141-37.37E,179,10.603,32.9538,8.16
677,2019/5/31,11:16,41-51.95N,141-37.37E,179,10.615,32.9553,8.16
678,2019/5/31,11:17,41-51.66N,141-37.37E,179,10.599,32.9571,8.16
679,2019/5/31,11:18,41-51.38N,141-37.38E,179,10.587,32.9597,8.16
680,2019/5/31,11:19,41-51.10N,141-37.38E,179,10.571,32.9634,8.16
681,2019/5/31,11:20,41-50.81N,141-37.39E,179,10.566,32.9625,8.16
682,2019/5/31,11:21,41-50.53N,141-37.39E,179,10.55,32.9566,8.16
683,2019/5/31,11:22,41-50.25N,141-37.40E,179,10.548,32.9553,8.16
684,2019/5/31,11:23,41-49.96N,141-37.40E,178,10.547,32.9536,8.16
685,2019/5/31,11:24,41-49.68N,141-37.41E,179,10.545,32.9628,8.17
686,2019/5/31,11:25,41-49.39N,141-37.41E,179,10.54,32.976,8.16
687,2019/5/31,11:26,41-49.12N,141-37.41E,179,10.544,32.9878,8.16
688,2019/5/31,11:27,41-48.83N,141-37.42E,179,10.551,32.9969,8.16
689,2019/5/31,11:28,41-48.55N,141-37.42E,179,10.543,33.0027,8.17
690,2019/5/31,11:29,41-48.26N,141-37.42E,179,10.561,33.0129,8.17
691,2019/5/31,11:30,41-47.98N,141-37.42E,179,10.553,33.0243,8.16
692,2019/5/31,11:31,41-47.70N,141-37.43E,179,10.55,33.0327,8.16
693,2019/5/31,11:32,41-47.42N,141-37.43E,179,10.576,33.0434,8.16
694,2019/5/31,11:33,41-47.13N,141-37.44E,179,10.66,33.0448,8.16
695,2019/5/31,11:34,41-46.85N,141-37.44E,180,10.707,33.059,8.16
696,2019/5/31,11:35,41-46.57N,141-37.43E,180,10.69,33.0712,8.16
697,2019/5/31,11:36,41-46.29N,141-37.43E,180,10.543,33.08,8.16
698,2019/5/31,11:37,41-46.01N,141-37.43E,179,10.41,33.0319,8.16
699,2019/5/31,11:38,41-45.73N,141-37.43E,179,10.355,32.9731,8.16
700,2019/5/31,11:39,41-45.45N,141-37.44E,179,10.289,32.9338,8.16
701,2019/5/31,11:40,41-45.17N,141-37.44E,180,10.254,32.9114,8.17
702,2019/5/31,11:41,41-44.89N,141-37.43E,180,10.271,32.8639,8.17
703,2019/5/31,11:42,41-44.61N,141-37.43E,179,10.247,32.8839,8.17
704,2019/5/31,11:43,41-44.33N,141-37.44E,179,10.215,32.8861,8.17
705,2019/5/31,11:44,41-44.06N,141-37.45E,176,10.155,32.9086,8.17
706,2019/5/31,11:45,41-43.78N,141-37.48E,177,10.27,32.8598,8.16
707,2019/5/31,11:46,41-43.50N,141-37.50E,176,10.375,32.7898,8.17
708,2019/5/31,11:47,41-43.22N,141-37.51E,177,10.412,32.7562,8.17
709,2019/5/31,11:48,41-42.95N,141-37.52E,178,10.51,32.7352,8.17
710,2019/5/31,11:49,41-42.65N,141-37.54E,177,10.595,32.699,8.17
711,2019/5/31,11:50,41-42.38N,141-37.55E,178,10.671,32.7124,8.17
712,2019/5/31,11:51,41-42.10N,141-37.56E,178,10.735,32.7858,8.16
713,2019/5/31,11:52,41-41.82N,141-37.58E,175,10.736,32.7986,8.16
714,2019/5/31,11:53,41-41.53N,141-37.61E,175,10.78,32.811,8.17
715,2019/5/31,11:54,41-41.25N,141-37.64E,176,10.855,32.7996,8.16
716,2019/5/31,11:55,41-40.96N,141-37.66E,176,10.676,32.8253,8.16
717,2019/5/31,11:56,41-40.67N,141-37.68E,177,10.611,32.6679,8.16
718,2019/5/31,11:57,41-40.38N,141-37.69E,176,10.501,32.5434,8.16
719,2019/5/31,11:58,41-40.09N,141-37.72E,176,10.424,32.4865,8.17
720,2019/5/31,11:59,41-39.80N,141-37.74E,175,10.32,32.4707,8.17
721,2019/5/31,12:00,41-39.51N,141-37.77E,176,10.31,32.4589,8.17
722,2019/5/31,12:01,41-39.22N,141-37.79E,177,10.531,32.4689,8.17
723,2019/5/31,12:02,41-38.93N,141-37.81E,177,10.651,32.5474,8.16
724,2019/5/31,12:03,41-38.64N,141-37.83E,175,10.527,32.714,8.17
725,2019/5/31,12:04,41-38.35N,141-37.85E,177,10.662,32.7604,8.17
726,2019/5/31,12:05,41-38.06N,141-37.87E,177,10.324,32.8935,8.16
727,2019/5/31,12:06,41-37.77N,141-37.89E,175,10.067,32.7795,8.16
728,2019/5/31,12:07,41-37.49N,141-37.93E,175,10.548,32.7611,8.16
729,2019/5/31,12:08,41-37.21N,141-37.94E,178,10.439,33.1503,8.16
730,2019/5/31,12:09,41-36.94N,141-37.96E,177,10.453,33.1145,8.16
731,2019/5/31,12:10,41-36.66N,141-37.97E,176,10.527,33.1118,8.16
732,2019/5/31,12:11,41-36.39N,141-38.00E,176,10.695,33.1061,8.16
733,2019/5/31,12:12,41-36.11N,141-38.02E,176,10.757,33.1353,8.16
734,2019/5/31,12:13,41-35.84N,141-38.04E,176,10.806,33.2148,8.16
735,2019/5/31,12:14,41-35.58N,141-38.06E,177,10.895,33.305,8.16
736,2019/5/31,12:15,41-35.31N,141-38.07E,177,10.88,33.265,8.15
737,2019/5/31,12:16,41-35.03N,141-38.10E,176,10.777,33.2399,8.15
738,2019/5/31,12:17,41-34.76N,141-38.12E,176,10.796,33.2554,8.15
739,2019/5/31,12:18,41-34.49N,141-38.14E,176,10.864,33.2923,8.15
740,2019/5/31,12:19,41-34.21N,141-38.16E,177,10.917,33.3755,8.15
741,2019/5/31,12:20,41-33.93N,141-38.17E,177,10.924,33.4136,8.15
742,2019/5/31,12:21,41-33.65N,141-38.19E,177,10.924,33.3845,8.15
743,2019/5/31,12:22,41-33.37N,141-38.21E,177,10.927,33.3595,8.15
744,2019/5/31,12:23,41-33.10N,141-38.22E,177,11.019,33.2948,8.14
745,2019/5/31,12:24,41-32.82N,141-38.24E,178,11.168,33.3378,8.14
746,2019/5/31,12:25,41-32.54N,141-38.25E,178,11.217,33.4022,8.14
747,2019/5/31,12:26,41-32.26N,141-38.26E,177,11.291,33.4633,8.15
748,2019/5/31,12:27,41-31.97N,141-38.28E,176,11.304,33.4762,8.14
749,2019/5/31,12:28,41-31.69N,141-38.30E,176,11.39,33.4781,8.14
750,2019/5/31,12:29,41-31.41N,141-38.32E,176,11.473,33.5592,8.14
751,2019/5/31,12:30,41-31.12N,141-38.34E,177,11.642,33.5386,8.13
752,2019/5/31,12:31,41-30.83N,141-38.36E,177,11.945,33.4381,8.13
753,2019/5/31,12:32,41-30.55N,141-38.38E,176,12.086,33.5007,8.14
754,2019/5/31,12:33,41-30.26N,141-38.40E,176,11.779,33.5804,8.13
755,2019/5/31,12:34,41-29.98N,141-38.41E,178,11.763,33.673,8.13
756,2019/5/31,12:35,41-29.71N,141-38.42E,178,11.842,33.719,8.13
757,2019/5/31,12:36,41-29.43N,141-38.44E,176,11.892,33.7294,8.13
758,2019/5/31,12:37,41-29.15N,141-38.46E,175,11.866,33.7365,8.13
759,2019/5/31,12:38,41-28.87N,141-38.49E,176,11.874,33.7437,8.13
760,2019/5/31,12:39,41-28.58N,141-38.50E,179,11.94,33.7569,8.13
761,2019/5/31,12:40,41-28.31N,141-38.49E,180,12.022,33.7535,8.13
762,2019/5/31,12:41,41-28.03N,141-38.49E,180,12.104,33.7527,8.13
763,2019/5/31,12:42,41-27.75N,141-38.48E,180,12.146,33.7542,8.13
764,2019/5/31,12:43,41-27.46N,141-38.48E,180,12.217,33.7515,8.13
765,2019/5/31,12:44,41-27.19N,141-38.48E,180,12.231,33.7485,8.13
766,2019/5/31,12:45,41-26.92N,141-38.47E,181,12.266,33.7096,8.13
767,2019/5/31,12:46,41-26.64N,141-38.46E,181,12.296,33.6924,8.13
768,2019/5/31,12:47,41-26.36N,141-38.46E,179,12.359,33.6884,8.13
769,2019/5/31,12:48,41-26.07N,141-38.49E,171,12.463,33.6812,8.13
770,2019/5/31,12:49,41-25.82N,141-38.57E,166,12.534,33.6761,8.13
771,2019/5/31,12:50,41-25.56N,141-38.66E,164,12.548,33.674,8.13
772,2019/5/31,12:51,41-25.30N,141-38.77E,163,12.588,33.6741,8.13
773,2019/5/31,12:52,41-25.02N,141-38.88E,163,12.637,33.6763,8.13
774,2019/5/31,12:53,41-24.76N,141-38.98E,163,12.695,33.6743,8.13
775,2019/5/31,12:54,41-24.49N,141-39.09E,162,12.706,33.6704,8.13
776,2019/5/31,12:55,41-24.22N,141-39.20E,163,12.711,33.6675,8.13
777,2019/5/31,12:56,41-23.95N,141-39.30E,163,12.675,33.6654,8.13
778,2019/5/31,12:57,41-23.68N,141-39.41E,163,12.553,33.6633,8.13
779,2019/5/31,12:58,41-23.41N,141-39.51E,163,12.501,33.6417,8.13
780,2019/5/31,12:59,41-23.14N,141-39.61E,163,12.463,33.6343,8.13
781,2019/5/31,13:00,41-22.86N,141-39.72E,163,12.411,33.6159,8.13
782,2019/5/31,13:01,41-22.60N,141-39.82E,163,12.385,33.5988,8.14
783,2019/5/31,13:02,41-22.33N,141-39.93E,164,12.347,33.5794,8.15
784,2019/5/31,13:03,41-22.05N,141-40.03E,164,12.294,33.5597,8.15
785,2019/5/31,13:04,41-21.78N,141-40.13E,164,12.265,33.5315,8.15
786,2019/5/31,13:05,41-21.51N,141-40.22E,164,12.234,33.4998,8.15
787,2019/5/31,13:06,41-21.24N,141-40.33E,164,12.178,33.4858,8.15
788,2019/5/31,13:07,41-20.96N,141-40.43E,165,12.146,33.4533,8.15
789,2019/5/31,13:08,41-20.69N,141-40.52E,165,12.168,33.4278,8.15
790,2019/5/31,13:09,41-20.42N,141-40.61E,164,12.118,33.4347,8.15
791,2019/5/31,13:10,41-20.14N,141-40.71E,165,12.062,33.416,8.15
792,2019/5/31,13:11,41-19.87N,141-40.80E,165,11.966,33.3867,8.15
793,2019/5/31,13:12,41-19.59N,141-40.90E,164,11.857,33.3497,8.15
794,2019/5/31,13:13,41-19.32N,141-41.00E,164,11.728,33.2963,8.15
795,2019/5/31,13:14,41-19.04N,141-41.10E,165,11.704,33.2159,8.16
796,2019/5/31,13:15,41-18.77N,141-41.19E,165,11.691,33.1789,8.15
797,2019/5/31,13:16,41-18.49N,141-41.29E,165,11.719,33.1708,8.16
798,2019/5/31,13:17,41-18.21N,141-41.39E,164,11.779,33.1879,8.16
799,2019/5/31,13:18,41-17.93N,141-41.49E,164,11.795,33.2247,8.16
800,2019/5/31,13:19,41-17.65N,141-41.59E,164,11.838,33.2402,8.16
801,2019/5/31,13:20,41-17.37N,141-41.69E,164,12.311,33.2576,8.16
802,2019/5/31,13:21,41-17.09N,141-41.80E,163,12.303,33.3881,8.16
803,2019/5/31,13:22,41-16.81N,141-41.90E,164,12.531,33.4259,8.16
804,2019/5/31,13:23,41-16.54N,141-42.01E,164,12.77,33.4554,8.16
805,2019/5/31,13:24,41-16.26N,141-42.11E,163,12.827,33.5158,8.15
806,2019/5/31,13:25,41-15.99N,141-42.22E,163,12.864,33.5381,8.15
807,2019/5/31,13:26,41-15.73N,141-42.33E,163,12.788,33.5533,8.15
808,2019/5/31,13:27,41-15.46N,141-42.44E,162,12.764,33.5595,8.15
809,2019/5/31,13:28,41-15.19N,141-42.55E,162,12.94,33.5503,8.15
810,2019/5/31,13:29,41-14.92N,141-42.66E,163,12.982,33.5448,8.15
811,2019/5/31,13:30,41-14.66N,141-42.77E,162,12.848,33.5356,8.15
812,2019/5/31,13:31,41-14.39N,141-42.88E,162,12.641,33.5209,8.15
813,2019/5/31,13:32,41-14.12N,141-42.99E,161,12.609,33.5354,8.15
814,2019/5/31,13:33,41-13.86N,141-43.10E,161,12.517,33.5625,8.15
815,2019/5/31,13:34,41-13.60N,141-43.21E,162,12.486,33.5533,8.15
816,2019/5/31,13:35,41-13.33N,141-43.33E,161,12.528,33.5408,8.15
817,2019/5/31,13:36,41-13.07N,141-43.45E,161,12.551,33.5251,8.15
818,2019/5/31,13:37,41-12.80N,141-43.56E,161,12.55,33.5123,8.15
819,2019/5/31,13:38,41-12.55N,141-43.67E,162,12.229,33.5063,8.15
820,2019/5/31,13:39,41-12.29N,141-43.78E,162,12.13,33.5068,8.15
821,2019/5/31,13:40,41-12.03N,141-43.89E,162,12.04,33.5441,8.15
822,2019/5/31,13:41,41-11.77N,141-44.00E,161,12.212,33.5694,8.15
823,2019/5/31,13:42,41-11.51N,141-44.11E,162,12.324,33.5722,8.15
824,2019/5/31,13:43,41-11.26N,141-44.22E,162,12.333,33.5767,8.15
825,2019/5/31,13:44,41-11.01N,141-44.32E,162,12.407,33.5721,8.15
826,2019/5/31,13:45,41-10.75N,141-44.43E,162,12.429,33.5729,8.15
827,2019/5/31,13:46,41-10.49N,141-44.53E,163,12.475,33.5747,8.15
828,2019/5/31,13:47,41-10.23N,141-44.64E,163,12.335,33.5743,8.15
829,2019/5/31,13:48,41-09.98N,141-44.74E,162,12.409,33.5761,8.15
830,2019/5/31,13:49,41-09.72N,141-44.84E,163,12.3,33.5724,8.15
831,2019/5/31,13:50,41-09.46N,141-44.94E,163,12.469,33.5685,8.15
832,2019/5/31,13:51,41-09.20N,141-45.04E,163,12.533,33.567,8.15
833,2019/5/31,13:52,41-08.94N,141-45.14E,163,12.459,33.5615,8.15
834,2019/5/31,13:53,41-08.68N,141-45.24E,163,12.456,33.5556,8.15
835,2019/5/31,13:54,41-08.42N,141-45.34E,164,12.485,33.5537,8.15
836,2019/5/31,13:55,41-08.17N,141-45.44E,164,12.587,33.5589,8.15
837,2019/5/31,13:56,41-07.91N,141-45.53E,163,12.532,33.5601,8.15
838,2019/5/31,13:57,41-07.65N,141-45.63E,164,12.673,33.5587,8.15
839,2019/5/31,13:58,41-07.39N,141-45.73E,164,12.728,33.5639,8.16
840,2019/5/31,13:59,41-07.13N,141-45.82E,164,12.772,33.5663,8.15
841,2019/5/31,14:00,41-06.88N,141-45.92E,164,12.84,33.5664,8.16
842,2019/5/31,14:01,41-06.61N,141-46.01E,164,12.822,33.5687,8.15
843,2019/5/31,14:02,41-06.35N,141-46.11E,164,12.842,33.5678,8.15
844,2019/5/31,14:03,41-06.09N,141-46.21E,164,12.921,33.5686,8.15
845,2019/5/31,14:04,41-05.83N,141-46.30E,165,12.942,33.5709,8.15
846,2019/5/31,14:05,41-05.56N,141-46.39E,165,12.913,33.5678,8.15
847,2019/5/31,14:06,41-05.30N,141-46.48E,164,12.736,33.5649,8.15
848,2019/5/31,14:07,41-05.04N,141-46.58E,165,12.785,33.5585,8.15
849,2019/5/31,14:08,41-04.78N,141-46.66E,165,12.763,33.5707,8.15
850,2019/5/31,14:09,41-04.52N,141-46.75E,165,12.744,33.5664,8.15
851,2019/5/31,14:10,41-04.26N,141-46.84E,166,12.749,33.5655,8.16
852,2019/5/31,14:11,41-03.98N,141-46.93E,166,12.71,33.5648,8.16
853,2019/5/31,14:12,41-03.72N,141-47.02E,166,12.648,33.5553,8.16
854,2019/5/31,14:13,41-03.46N,141-47.10E,166,12.617,33.5384,8.15
855,2019/5/31,14:14,41-03.19N,141-47.19E,165,12.637,33.5275,8.16
856,2019/5/31,14:15,41-02.93N,141-47.28E,165,12.589,33.5228,8.16
857,2019/5/31,14:16,41-02.67N,141-47.37E,166,12.582,33.5199,8.16
858,2019/5/31,14:17,41-02.40N,141-47.45E,165,12.565,33.5109,8.16
859,2019/5/31,14:18,41-02.13N,141-47.55E,165,12.437,33.5086,8.16
860,2019/5/31,14:19,41-01.87N,141-47.64E,165,12.173,33.5174,8.16
861,2019/5/31,14:20,41-01.61N,141-47.73E,165,11.999,33.5343,8.16
862,2019/5/31,14:21,41-01.35N,141-47.82E,164,11.9,33.5624,8.17
863,2019/5/31,14:22,41-01.08N,141-47.92E,164,12.211,33.576,8.17
864,2019/5/31,14:23,41-00.82N,141-48.01E,165,12.295,33.5888,8.17
865,2019/5/31,14:24,41-00.57N,141-48.10E,164,12.364,33.5718,8.17
866,2019/5/31,14:25,41-00.31N,141-48.19E,164,12.381,33.5689,8.17
867,2019/5/31,14:26,41-00.05N,141-48.28E,165,12.378,33.5633,8.16
868,2019/5/31,14:27,40-59.79N,141-48.37E,165,12.476,33.5779,8.17
869,2019/5/31,14:28,40-59.53N,141-48.47E,164,12.433,33.5813,8.17
870,2019/5/31,14:29,40-59.27N,141-48.56E,165,12.404,33.5649,8.17
871,2019/5/31,14:30,40-59.01N,141-48.65E,165,12.366,33.5769,8.17
872,2019/5/31,14:31,40-58.75N,141-48.74E,165,12.41,33.5859,8.16
873,2019/5/31,14:32,40-58.48N,141-48.83E,165,12.43,33.5878,8.17
874,2019/5/31,14:33,40-58.22N,141-48.92E,165,12.355,33.5748,8.16
875,2019/5/31,14:34,40-57.96N,141-49.01E,164,12.42,33.573,8.17
876,2019/5/31,14:35,40-57.70N,141-49.10E,164,12.438,33.5708,8.17